New York Downtown Manhattan/w, NY

11:09 PM EDT on October 18, 2019 (GMT -0400)
New York Downtown Manhattan/w

Weather History for KJRB - August, 2019

Change the Weather History Date:

Tuesday, August 27, 2019

  Actual Average (KEWR) Record (KEWR)
Temperature  
Mean Temperature 70 °F -  
Max Temperature 77 °F 84 °F 100 °F (1993)
Min Temperature 66 °F 67 °F 52 °F (1940)
Cooling Degree Days 6    
Growing Degree Days 20 (Base 50)    
Moisture  
Dew Point 60 °F    
Average Humidity 71    
Maximum Humidity 81    
Minimum Humidity 55    
Precipitation  
Precipitation 0.00 in - - ()
Sea Level Pressure  
Sea Level Pressure 30.07 in    
Wind  
Wind Speed 5 mph ()    
Max Wind Speed 9 mph    
Max Gust Speed 45 mph    
Visibility 9.9 miles    
Events      
Averages and records for this station are not official NWS values.
T = Trace of Precipitation, MM = Missing Value Source: Averaged Metar Reports

Daily Weather History Graph

Daily Weather History Graph

Search for Another Location

Airport or City:

Astronomy

Aug. 27, 2019 Rise Set
Actual Time 6:17 AM EDT 7:36 PM EDT
Civil Twilight 5:49 AM EDT 8:04 PM EDT
Nautical Twilight 5:15 AM EDT 8:38 PM EDT
Astronomical Twilight 4:39 AM EDT 9:14 PM EDT
Moon 2:38 AM EDT (8/27) 5:56 PM EDT (8/27)
Length of Visible Light 14h 15m
Length of Day
13h 18m
Waning Crescent, 11% of the Moon is Illuminated
Aug 27
Waning Crescent
Aug 30
New
Sep 5
First Quarter
Sep 14
Full
Sep 21
Last Quarter

Hourly Weather History & Observations

Time (EDT) Temp. Dew Point Humidity Pressure Visibility Wind Dir Wind Speed Gust Speed Precip Events Conditions
12:56 AM 68.0 °F 59.0 °F 73% 30.16 in 10.0 mi ENE 5.8 mph - N/A   Clear
1:56 AM 68.0 °F 59.0 °F 73% 30.14 in 10.0 mi NE 5.8 mph - N/A   Clear
2:56 AM 66.9 °F 59.0 °F 76% 30.12 in 10.0 mi NE 4.6 mph - N/A   Clear
3:56 AM 68.0 °F 60.1 °F 76% 30.11 in 10.0 mi ENE 4.6 mph - N/A   Clear
4:56 AM 66.9 °F 59.0 °F 76% 30.10 in 10.0 mi East 4.6 mph - N/A   Clear
5:56 AM 66.9 °F 59.0 °F 76% 30.09 in 10.0 mi East 5.8 mph - N/A   Clear
6:56 AM 66.9 °F 59.0 °F 76% 30.11 in 10.0 mi East 4.6 mph - N/A   Clear
7:56 AM 68.0 °F 60.1 °F 76% 30.12 in 10.0 mi NE 8.1 mph - N/A   Clear
8:56 AM 71.1 °F 59.0 °F 66% 30.11 in 10.0 mi ENE 9.2 mph - N/A   Clear
10:56 AM 71.1 °F 57.9 °F 63% 30.11 in 10.0 mi Variable 6.9 mph - N/A   Scattered Clouds
11:56 AM 71.1 °F 57.9 °F 63% 30.09 in 7.0 mi ESE 4.6 mph - N/A   Partly Cloudy
12:56 PM 73.9 °F 57.0 °F 55% 30.08 in 10.0 mi Variable 3.5 mph - N/A   Clear
1:56 PM 73.9 °F 57.9 °F 57% 30.07 in 10.0 mi Variable 5.8 mph - N/A   Clear
2:56 PM 75.9 °F 59.0 °F 56% 30.04 in 10.0 mi SSE 6.9 mph - N/A   Clear
3:56 PM 75.0 °F 62.1 °F 64% 30.04 in 10.0 mi South 8.1 mph - N/A   Clear
4:56 PM 72.0 °F 61.0 °F 68% 30.04 in 10.0 mi SSE 6.9 mph 44.9 mph N/A   Clear
5:56 PM 72.0 °F 60.1 °F 66% 30.03 in 10.0 mi Variable 5.8 mph - N/A   Clear
6:56 PM 71.1 °F 60.1 °F 68% 30.02 in 10.0 mi SE 5.8 mph - N/A   Clear
7:56 PM 70.0 °F 60.1 °F 71% 30.03 in 10.0 mi SSE 3.5 mph - N/A   Clear
8:56 PM 69.1 °F 61.0 °F 75% 30.04 in 10.0 mi SE 6.9 mph - N/A   Clear
9:56 PM 70.0 °F 63.0 °F 78% 30.04 in 10.0 mi SE 5.8 mph - N/A   Clear
10:17 PM 69.8 °F 62.6 °F 78% 30.04 in 10.0 mi SE 3.5 mph - N/A   Mostly Cloudy
10:46 PM 69.8 °F 62.6 °F 78% 30.04 in 10.0 mi Variable 4.6 mph - N/A   Scattered Clouds
10:56 PM 69.1 °F 63.0 °F 81% 30.04 in 10.0 mi Calm Calm - N/A   Clear
11:28 PM 69.8 °F 62.6 °F 78% 30.04 in 10.0 mi SSE 4.6 mph - N/A   Mostly Cloudy
11:56 PM 69.1 °F 63.0 °F 81% 30.03 in 10.0 mi ESE 4.6 mph - N/A   Overcast